Cedar City, UT

9:27 PM MST on January 19, 2018 (GMT -0700)
Cedar City Regional

Weather History for KCDC - May, 2014

Change the Weather History Date:

Wednesday, May 7, 2014

  Actual Average Record
Temperature  
Mean Temperature 43 °F 53 °F  
Max Temperature 51 °F 69 °F 85 °F (1989)
Min Temperature 34 °F 37 °F 23 °F (1968)
Degree Days  
Heating Degree Days 22 12  
Month to date heating degree days 68 90  
Since 1 July heating degree days 5889 5976  
Cooling Degree Days 0 0  
Month to date cooling degree days 3 0  
Year to date cooling degree days 3 0  
Moisture  
Dew Point 34 °F    
Average Humidity 67    
Maximum Humidity 82    
Minimum Humidity 51    
Precipitation  
Precipitation 0.12 in 0.02 in 1.17 in (1979)
Month to date precipitation 0.12 0.18  
Year to date precipitation 2.17 4.45  
Sea Level Pressure  
Sea Level Pressure 29.77 in    
Wind  
Wind Speed 10 mph (SSW)    
Max Wind Speed 23 mph    
Max Gust Speed 32 mph    
Visibility 10 miles    
Events Rain , Thunderstorm    
T = Trace of Precipitation, MM = Missing Value Source: NWS Daily Summary

Daily Weather History Graph

Daily Weather History Graph

Search for Another Location

Airport or City:

Trip Planner

Search our weather history database for the weather conditions in past years. The results will help you decide how hot, cold, wet, or windy it might be!

Date:

Astronomy

May. 07, 2014 Rise Set
Actual Time 6:30 AM MDT 8:28 PM MDT
Civil Twilight 6:01 AM MDT 8:57 PM MDT
Nautical Twilight 5:26 AM MDT 9:32 PM MDT
Astronomical Twilight 4:49 AM MDT 10:09 PM MDT
Moon 1:44 PM MDT (5/7) 2:23 AM MDT (5/7)
Length of Visible Light 14h 55m
Length of Day
13h 58m
First Quarter, 56% of the Moon is Illuminated
May 7
First Quarter
May 14
Full
May 21
Last Quarter
May 28
New
Jun 5
First Quarter

Hourly Weather History & Observations

Time (MDT) Temp. Windchill Dew Point Humidity Pressure Visibility Wind Dir Wind Speed Gust Speed Precip Events Conditions
12:53 AM 36.0 °F - 25.0 °F 64% 29.60 in 10.0 mi Calm Calm - N/A   Clear
1:53 AM 39.9 °F 37.8 °F 24.1 °F 53% 29.58 in 10.0 mi SSW 3.5 mph - N/A   Clear
3:53 AM 37.0 °F 31.6 °F 25.0 °F 62% 29.58 in 10.0 mi SSW 6.9 mph - N/A   Clear
4:53 AM 36.0 °F 32.1 °F 25.0 °F 64% 29.59 in 10.0 mi South 4.6 mph - N/A   Clear
6:53 AM 41.0 °F 34.7 °F 28.0 °F 60% 29.59 in 10.0 mi SSW 10.4 mph - N/A   Overcast
7:53 AM 42.1 °F 34.9 °F 28.9 °F 60% 29.62 in 10.0 mi SW 13.8 mph 23.0 mph N/A   Overcast
8:53 AM 43.0 °F 35.4 °F 30.9 °F 62% 29.63 in 10.0 mi SW 16.1 mph 25.3 mph N/A   Mostly Cloudy
9:53 AM 44.1 °F 36.5 °F 32.0 °F 63% 29.68 in 10.0 mi SW 17.3 mph 25.3 mph N/A   Mostly Cloudy
10:53 AM 46.0 °F 39.0 °F 30.0 °F 54% 29.68 in 10.0 mi SW 17.3 mph 25.3 mph N/A   Overcast
11:53 AM 46.9 °F - 33.1 °F 59% 29.68 in 10.0 mi SSW 23.0 mph 29.9 mph 0.00 in   Overcast
12:41 PM 44.1 °F 37.1 °F 35.1 °F 71% 29.77 in 8.0 mi SW 15.0 mph 24.2 mph 0.00 in Rain Light Rain
12:53 PM 43.0 °F 40.3 °F 35.1 °F 74% 29.72 in 5.0 mi Variable 4.6 mph - 0.03 in Rain Light Rain
1:00 PM 39.9 °F 33.9 °F 36.0 °F 86% 29.77 in 7.0 mi NNW 9.2 mph - 0.01 in Rain Light Rain
1:53 PM 46.0 °F 40.6 °F 37.9 °F 73% 29.70 in 10.0 mi SSW 11.5 mph - 0.07 in Rain Light Rain
2:07 PM 46.9 °F - 37.9 °F 71% 29.77 in 10.0 mi WSW 10.4 mph 19.6 mph 0.00 in Thunderstorm Mostly Cloudy
2:22 PM 46.9 °F - 35.1 °F 63% 29.77 in 10.0 mi WSW 9.2 mph - 0.00 in Rain Light Rain
2:53 PM 50.0 °F - 34.0 °F 54% 29.70 in 10.0 mi West 10.4 mph - 0.00 in   Overcast
3:15 PM 46.9 °F - 36.0 °F 66% 29.78 in 10.0 mi SSW 17.3 mph 24.2 mph N/A Thunderstorm Overcast
3:28 PM 48.9 °F - 37.0 °F 64% 29.78 in 10.0 mi SSW 15.0 mph 29.9 mph N/A Thunderstorm Thunderstorm
4:06 PM 45.0 °F 39.7 °F 35.1 °F 68% 29.81 in 10.0 mi NNW 10.4 mph 16.1 mph 0.00 in Rain , Thunderstorm Light Rain
4:13 PM 45.0 °F 41.8 °F 37.0 °F 74% 29.81 in 7.0 mi NNE 5.8 mph - 0.01 in Rain , Thunderstorm Light Rain
4:53 PM 44.1 °F 38.6 °F 37.9 °F 79% 29.79 in 10.0 mi SSE 10.4 mph - 0.01 in   Overcast
5:00 PM 44.1 °F 37.4 °F 37.9 °F 79% 29.83 in 10.0 mi SSE 13.8 mph - N/A Thunderstorm Overcast
5:15 PM 43.0 °F 36.0 °F 36.0 °F 76% 29.85 in 10.0 mi SSE 13.8 mph - N/A   Overcast
5:39 PM 45.0 °F 40.6 °F 36.0 °F 71% 29.85 in 10.0 mi NE 8.1 mph - N/A   Overcast
5:53 PM 45.0 °F 39.7 °F 35.1 °F 68% 29.81 in 10.0 mi NNW 10.4 mph - N/A   Overcast
6:46 PM 42.1 °F 37.7 °F 36.0 °F 79% 29.88 in 6.0 mi South 6.9 mph - 0.01 in Rain Light Rain
6:53 PM 41.0 °F 33.9 °F 37.0 °F 86% 29.83 in 10.0 mi SSW 12.7 mph - 0.01 in Rain Light Rain
7:36 PM 41.0 °F 36.4 °F 37.0 °F 86% 29.90 in 10.0 mi South 6.9 mph - 0.05 in   Overcast
7:48 PM 41.0 °F 33.9 °F 37.4 °F 87% 29.89 in 10.0 mi SE 12.7 mph 19.6 mph 0.06 in Rain Light Rain
7:53 PM 41.0 °F 33.5 °F 36.0 °F 82% 29.82 in 10.0 mi SE 13.8 mph 21.9 mph 0.06 in Rain Light Rain
8:08 PM 42.1 °F 35.7 °F 36.0 °F 79% 29.88 in 10.0 mi SSE 11.5 mph - 0.00 in   Overcast
8:53 PM 39.9 °F 36.7 °F 34.0 °F 79% 29.85 in 10.0 mi South 4.6 mph - 0.01 in Rain Light Rain
9:36 PM 39.0 °F 34.0 °F 36.0 °F 89% 29.92 in 8.0 mi East 6.9 mph - 0.01 in Rain Light Rain
9:53 PM 39.9 °F 33.9 °F 35.1 °F 83% 29.87 in 10.0 mi ESE 9.2 mph - 0.01 in   Mostly Cloudy
10:53 PM 39.0 °F - 35.1 °F 86% 29.89 in 10.0 mi Calm Calm - N/A   Overcast
11:53 PM 37.0 °F 33.3 °F 35.1 °F 93% 29.88 in 10.0 mi SW 4.6 mph - N/A   Partly Cloudy